Wiscasset, ME

7:51 PM EDT on May 26, 2017 (GMT -0400)
Wiscasset

Weather History for KIWI - November, 2012

Change the Weather History Date:

Saturday, November 24, 2012

  Actual Average Record
Temperature  
Mean Temperature 39 °F -  
Max Temperature 48 °F 42 °F 60 °F (2014)
Min Temperature 30 °F 26 °F 9 °F (2008)
Degree Days  
Heating Degree Days 26    
Moisture  
Dew Point 33 °F    
Average Humidity 75    
Maximum Humidity 93    
Minimum Humidity 46    
Precipitation  
Precipitation 0.02 in - - ()
Sea Level Pressure  
Sea Level Pressure 29.50 in    
Wind  
Wind Speed 3 mph (WSW)    
Max Wind Speed 8 mph    
Max Gust Speed 21 mph    
Visibility 10 miles    
Events Rain    
Averages and records for this station are not official NWS values.
T = Trace of Precipitation, MM = Missing Value Source: NWS Daily Summary

Daily Weather History Graph

Daily Weather History Graph

Search for Another Location

Airport or City:

Trip Planner

Search our weather history database for the weather conditions in past years. The results will help you decide how hot, cold, wet, or windy it might be!

Date:

Astronomy

Nov. 24, 2012 Rise Set
Actual Time 6:45 AM EST 4:05 PM EST
Civil Twilight 6:13 AM EST 4:37 PM EST
Nautical Twilight 5:38 AM EST 5:12 PM EST
Astronomical Twilight 5:03 AM EST 5:47 PM EST
Moon 1:53 PM EST (11/24) 2:53 AM EST (11/24)
Length of Visible Light 10h 23m
Length of Day
9h 19m
Waxing Gibbous, 87% of the Moon is Illuminated
Nov 24
Waxing Gibbous
Nov 28
Full
Dec 6
Last Quarter
Dec 13
New
Dec 20
First Quarter

Hourly Weather History & Observations

Time (EST) Temp. Windchill Dew Point Humidity Pressure Visibility Wind Dir Wind Speed Gust Speed Precip Events Conditions
12:53 AM 48.0 °F - 43.0 °F 83% 29.62 in 10.0 mi Variable 4.6 mph - N/A   Overcast
1:53 AM 46.9 °F - 42.1 °F 83% 29.60 in 10.0 mi South 3.5 mph - N/A   Overcast
2:53 AM 46.0 °F 44.8 °F 42.1 °F 86% 29.57 in 10.0 mi Variable 3.5 mph - N/A   Overcast
3:53 AM 46.0 °F - 42.1 °F 86% 29.55 in 10.0 mi Calm Calm - N/A   Overcast
4:53 AM 45.0 °F - 42.1 °F 90% 29.53 in 10.0 mi Calm Calm - N/A   Overcast
5:53 AM 44.1 °F - 42.1 °F 93% 29.52 in 9.0 mi Calm Calm - N/A   Overcast
6:53 AM 44.1 °F - 42.1 °F 93% 29.51 in 6.0 mi Calm Calm - N/A   Overcast
7:53 AM 45.0 °F - 42.1 °F 90% 29.50 in 10.0 mi Calm Calm - N/A   Overcast
8:53 AM 45.0 °F - 42.1 °F 90% 29.50 in 9.0 mi Calm Calm - 0.00 in   Overcast
9:36 AM 46.4 °F 42.9 °F 42.8 °F 87% 29.50 in 10.0 mi WSW 6.9 mph - N/A   Overcast
9:53 AM 46.0 °F 44.8 °F 41.0 °F 83% 29.50 in 10.0 mi Variable 3.5 mph - N/A   Overcast
10:13 AM 46.4 °F - 41.0 °F 81% 29.49 in 10.0 mi Calm Calm - N/A   Overcast
10:46 AM 46.4 °F 43.5 °F 39.2 °F 76% 29.48 in 10.0 mi Variable 5.8 mph - N/A   Overcast
10:53 AM 46.0 °F 43.9 °F 39.9 °F 79% 29.48 in 10.0 mi West 4.6 mph - N/A   Overcast
11:53 AM 44.1 °F 42.5 °F 37.0 °F 76% 29.45 in 10.0 mi Variable 3.5 mph - 0.00 in   Overcast
12:53 PM 44.1 °F - 35.1 °F 71% 29.44 in 10.0 mi Calm Calm - N/A   Overcast
1:53 PM 39.9 °F 35.8 °F 35.1 °F 83% 29.45 in 7.0 mi Variable 5.8 mph - 0.01 in Rain Light Rain
2:08 PM 37.4 °F 33.8 °F 33.8 °F 87% 29.45 in 5.0 mi Variable 4.6 mph - 0.01 in Rain Light Rain
2:53 PM 39.0 °F - 34.0 °F 82% 29.45 in 10.0 mi Calm Calm - 0.01 in   Overcast
3:53 PM 39.0 °F - 30.9 °F 73% 29.46 in 10.0 mi Calm Calm - N/A   Overcast
4:53 PM 39.0 °F 35.7 °F 28.0 °F 65% 29.47 in 10.0 mi Variable 4.6 mph - N/A   Overcast
5:53 PM 37.9 °F 33.5 °F 21.9 °F 53% 29.50 in 10.0 mi Variable 5.8 mph 16.1 mph N/A   Overcast
6:53 PM 37.0 °F 32.4 °F 19.0 °F 48% 29.51 in 10.0 mi Variable 5.8 mph - N/A   Overcast
7:53 PM 35.1 °F 29.3 °F 16.0 °F 46% 29.52 in 10.0 mi Variable 6.9 mph 20.7 mph N/A   Mostly Cloudy
8:53 PM 33.1 °F 26.1 °F 16.0 °F 50% 29.52 in 10.0 mi WNW 8.1 mph - N/A   Clear
9:53 PM 30.9 °F 24.3 °F 16.0 °F 54% 29.52 in 10.0 mi Variable 6.9 mph - N/A   Clear
10:53 PM 30.9 °F 27.5 °F 15.1 °F 52% 29.52 in 10.0 mi Variable 3.5 mph - N/A   Clear
11:53 PM 30.0 °F 26.5 °F 16.0 °F 56% 29.52 in 10.0 mi Variable 3.5 mph - N/A   Scattered Clouds